Regional Weather Roundup
Issued by NWS Spokane, WA

Home | Current Version | Previous Version | Text Only | Print | Product List | Glossary On
Versions: 1 2 3 4 5 6 7 8 9 10 11 12 13 14 15 16 17 18 19 20 21 22 23 24 25 26 27 28 29 30 31 32 33 34 35 36 37 38 39 40 41 42 43 44 45 46 47 48 49 50
000
NZUS01 KOTX 310810
RWROTX
EASTERN WASHINGTON/NORTHERN IDAHO ROUNDUP
NATIONAL WEATHER SERVICE, SPOKANE WA
100 AM PDT FRI OCT 31 2014

Note: "fair" indicated few or no clouds below 12,000 feet with no
significant weather and/or obstructions to visibility.

...NORTHEAST WASHINGTON AND NORTHERN IDAHO PANHANDLE...

CITY           SKY/WX    TMP DP  RH WIND       PRES   REMARKS
SPOKANE INTL   CLOUDY    49  43  80 NE7       29.78F
SPOKANE DOWNTO CLOUDY    49  44  83 CALM      29.78F
COEUR D ALENE  MOCLDY   N/A N/A N/A NE12      29.79F
DEER PARK      CLOUDY    51  43  74 N8        29.79F
SANDPOINT      MOCLDY    45  45 100 NE9       29.83F

...SOUTHEAST WASHINGTON AND SOUTHERN IDAHO PANHANDLE...

CITY           SKY/WX    TMP DP  RH WIND       PRES   REMARKS
WALLA WALLA    CLOUDY    53  49  86 S6        29.82R
PULLMAN/MOSCOW CLOUDY    54  43  66 E14       29.78F
LEWISTON       CLOUDY    54  46  74 SE8       29.74F
LOWELL           N/A     48  46  93 N3        29.87F

...COLUMBIA BASIN...

CITY           SKY/WX    TMP DP  RH WIND       PRES   REMARKS
EPHRATA        CLOUDY    52  48  86 NW7       29.77R
MOSES LAKE     CLOUDY    51  47  86 NW7       29.78R
TRI CITIES     CLOUDY    51  51 100 E5        29.79R
HERMISTON      CLOUDY    52  50  93 CALM      29.80S
PENDLETON      CLOUDY    50  48  93 SE10      29.79F FOG

...EAST SLOPES CASCADES...

CITY           SKY/WX    TMP DP  RH WIND       PRES   REMARKS
THE DALLES     LGT RAIN  54  53  97 S3        29.79S FOG
YAKIMA         LGT RAIN  52  51  97 CALM      29.80F FOG
ELLENSBURG     LGT RAIN  51  48  89 E3        29.78S VSB 1/2
WENATCHEE      RAIN      50  48  93 CALM      29.80R VSB 1/2
OMAK           LGT RAIN  48  47  96 W5        29.78F VSB 1

...SOUTHERN BRITISH COLUMBIA...

CITY           SKY/WX    TMP DP  RH WIND       PRES   REMARKS
PENTICTON      LGT RAIN  52  48  87 S8G17     29.75F
CRANBROOK      MOCLDY    37  36  93 SW2       29.90F

...WESTERN MONTANA...

CITY           SKY/WX    TMP DP  RH WIND       PRES   REMARKS
MISSOULA       MOCLDY    38  37  97 CALM      29.96F

...NEIGHBORING CITIES...

CITY           SKY/WX    TMP DP  RH WIND       PRES   REMARKS
SEATTLE        RAIN      52  51  97 SW5       29.78F FOG
CALGARY        PTCLDY    41  34  75 S15       29.77F



USA.gov is the U.S. government's official web portal to all federal, state and local government web resources and services.